loading
|
Showing default

OPS 2222, 3334

Orbit data source: Space-Track

OPS 2222, 3334 is an American payload satellite that was launched on Tue, 06 Aug 1968 UTC via an ATLAS SLV-3A AGENA D launch vehicle from the Air Force Eastern Test Range (AFETR). Payloads include a variety of satellites, spacecraft, and rockets equipped with specific instruments for various scientific and technological missions. These include communications satellites like Starlink; space stations such as the ISS; scientific satellites like the Hubble; Earth observation satellites from companies like Planet Labs, Umbra, and HawkEye 360; GPS; miniature CubeSats for education and research; and military/defense satellites.

Loading next visibility...
Next conjunction unknown
Loading greatness...
OPS 2222 details
Identifier
3334, 1968-063A
Orbit
Active
Last TLE update3 days ago
Origin
Flag of USNRO/SAFSP (US)
ManufacturerLMSC?
MissionNon-operational Defense Sigint
Bus & MotorCANYON, Unknown motor
Mass~240 kg wet, ~200 kg dry
Launch date (UTC)
1968-08-06 (56 years ago)
Launch vehicle
ATLAS SLV-3A AGENA D
Launch site
Air Force Eastern Test Range (AFETR)
Object type
Payload
Rocket body
Debris
Shape & HBRCyl, 1.7 m
Radar Cross Section2.639 m²

Expand to show TLE details & history

TLE from 3 days ago
0 OPS 2222
1 03334U 68063A   24283.32626773 -.00000250  00000-0  00000-0 0  9999
2 03334   7.5096 289.5720 0931403 213.7395 334.7326  0.99255891 20014
Epoch: 2024-10-09T07:49Z
Definitive object data (Epoch: 2024-10-09T07:49:49.531Z)
Latitude-0.45283°
Longitude-23.01895°
Altitude32,587.421 km
Speed3.327 km/s
True Right ascension07h 31m 27s
True Declination0° 27' 08"
Sunlit
Object was in daylight at TLE epoch
Predictive object data (real-time)
Latitude0.272°
Longitude155.55792°
Altitude39,304.343 km
Speed2.839 km/s
Apparent Right ascension19h 50m 20s
Apparent Declination-4° 52' 52"
Sunlit
Object is in daylight
Predictive observer data (real-time)
Local Sidereal Time14:03:46
Azimuth95.895° ESE
Elevation-0.564°
Doppler factor1
Orbital elements
Apogee40,028.949 km
Perigee32,120.778 km
Semi-major axis42,453 km
Eccentricity0.0931403
Inclination7.5096°
RAAN289.572°
Arg. of periapsis213.7395°
True anomaly329.6504°
Mean anomaly334.7326°
Eccentric anomaly332.24763°
Mean motion0.24813 °/min
BSTARUnknown
Period1450.85 mins
No data available
No data available
Other satellites on launch #63 in the year 1968 (1968-08-06 UTC)

OPS 2222 Visibility forecast

Observer location: 39.9160978°, -105.1181434

Span
Click to sort rows by Start time (UTC) header in descending order
Start Az.
Max El. time (UTC)
Max El. Az.
Max El.
End time (UTC)
End Az.
512 mins2024-10-12 23:13:46.489Z98.041° ESE2024-10-13 03:43:46.489Z102.293° ESE16.38°2024-10-13 07:45:46.489Z105.173° ESE